www.pogodaiklimat.ru

Погода и климат >> Архив погоды >> Кувейт >> Bubiyan


ПОГОДА в Bubiyan

  • Прогноз погоды в Bubiyan
  • Монитор погоды в Bubiyan
  • Климат города

АРХИВ ПОГОДЫ в Bubiyan

Время (UTC), дата Ветер
(напр.,м/с)
 
Видим.   Явления Облачность Т
(С)
Тd
(С)
f
(%)
Тe
(С)
Тes
(С)
Комфортность P
(гПа)
Po
(гПа)
Тmin
(С)
Tmax
(С)
R
(мм)
R24
(мм)
S
(см)
09 11.08 Ю 5-7
{9}
н/о н/о +36.9 +32.0 76 +71 +71 опасность
перегрева
999.2 999.0
12 11.08 ЮВ 4-5
{10}
н/о н/о +37.0 +30.8 71 +67 +67 опасность
перегрева
998.6 999.0
15 11.08 Ю 2-4
{7}
н/о н/о +35.8 +29.5 70 +61 +61 опасность
перегрева
998.2 998.0
18 11.08 Ю 3-4
{7}
н/о н/о +34.5 +28.6 72 +57 +57 опасность
перегрева
998.9 999.0
21 11.08 Ю 2-4
{5}
н/о н/о +34.1 +28.9 74 +57 +57 опасность
перегрева
999.2 999.0 +30.9 +38.0
00 12.08 З 4-7
{9}
н/о н/о +34.2 +28.9 74 +58 +58 опасность
перегрева
999.0 999.0
03 12.08 Ю 2-4
{7}
н/о н/о +34.0 +29.1 76 +58 +58 опасность
перегрева
1000.0 1000.0
06 12.08 Ю 3-6
{7}
н/о н/о +36.3 +29.8 69 +62 +62 опасность
перегрева
1000.8 1001.0
09 12.08 ЮВ 4-7
{7}
н/о н/о +37.6 +29.6 64 +63 +63 опасность
перегрева
1000.0 1000.0
12 12.08 ЮВ 7-9
{9}
н/о н/о +36.4 +31.2 75 +68 +68 опасность
перегрева
998.5 999.0
15 12.08 Ю 3-6
{10}
н/о н/о +35.4 +31.0 78 +66 +66 опасность
перегрева
997.8 998.0
18 12.08 Ю 3-4
{10}
н/о н/о +34.7 +28.8 72 +58 +58 опасность
перегрева
998.9 999.0
21 12.08 ЮВ 4-9
{9}
н/о н/о +36.5 +24.3 50 +49 +49 опасность
перегрева
998.5 999.0 +33.2 +38.3
00 13.08 ЮЗ 3-4
{9}
н/о н/о +34.9 +29.9 75 +61 +61 опасность
перегрева
997.9 998.0
03 13.08 ЮЗ 2-4
{6}
н/о н/о +35.6 +28.5 67 +58 +58 опасность
перегрева
998.8 999.0
06 13.08 Ю 3-6
{8}
н/о н/о +40.5 +22.1 35 +48 +48 опасность
перегрева
999.5 1000.0
09 13.08 ЮВ 6-7
{8}
н/о н/о +37.6 +30.0 65 +64 +64 опасность
перегрева
999.3 999.0
12 13.08 ЮВ 5-7
{8}
н/о н/о +37.8 +30.3 66 +65 +65 опасность
перегрева
998.4 998.0
15 13.08 Ю 2-4
{6}
н/о н/о +36.8 +30.3 69 +64 +64 опасность
перегрева
997.8 998.0
18 13.08 ЮЗ 5-6
{6}
н/о н/о +32.1 +27.4 76 +51 +51 опасность
перегрева
998.7 999.0
21 13.08 ЮЗ 5-5
{6}
н/о н/о +31.6 +26.1 73 +48 +48 опасность
перегрева
998.8 999.0 +30.7 +41.4
00 14.08 СЗ 2-4
{6}
н/о н/о +33.2 +15.6 35 +36 +36 очень
душно
999.1 999.0
03 14.08 ЮЗ 5-6
{7}
н/о н/о +30.1 +13.9 37 +32 +32 жарко 999.6 1000.0
06 14.08 СЗ 5-6
{7}
н/о н/о +44.4 +18.0 22 +43 +43 опасность
перегрева
1000.1 1000.0
09 14.08 ЮВ 2-4
{7}
н/о н/о +41.5 +23.8 37 +52 +52 опасность
перегрева
999.6 1000.0
12 14.08 Ю 3-5
{8}
н/о н/о +42.0 +27.4 44 +59 +59 опасность
перегрева
998.1 998.0
15 14.08 Ю 4-5
{8}
н/о н/о +39.6 +25.7 46 +54 +54 опасность
перегрева
998.0 998.0
18 14.08 Ю 5-9
{10}
н/о н/о +36.5 +27.2 59 +55 +55 опасность
перегрева
999.8 1000.0
21 14.08 ЮВ 3-7
{14}
н/о н/о +34.6 +30.0 77 +61 +61 опасность
перегрева
1000.0 1000.0 +28.8 +47.3
00 15.08 ЮЗ 1-2
{14}
н/о н/о +31.2 +28.6 86 +53 +53 опасность
перегрева
999.9 1000.0
03 15.08 З 3-4
{4}
н/о н/о +30.5 +29.0 92 +53 +53 опасность
перегрева
1000.9 1001.0
06 15.08 СЗ 5-7
{7}
н/о н/о +40.4 +26.1 45 +39 +39 очень
жарко
1001.6 1002.0
09 15.08 Ю 4-7
{7}
н/о н/о +40.7 +25.0 41 +53 +53 опасность
перегрева
1000.6 1001.0
12 15.08 Ю 3-7
{10}
н/о н/о +38.4 +30.6 65 +67 +67 опасность
перегрева
999.5 1000.0
15 15.08 Ю 5-7
{8}
н/о н/о +36.2 +31.0 75 +67 +67 опасность
перегрева
999.3 999.0
18 15.08 Ю 2-3
{8}
н/о н/о +34.8 +29.1 72 +58 +58 опасность
перегрева
1001.1 1001.0
21 15.08 ЮВ 7-9
{12}
н/о н/о +34.3 +31.6 86 +68 +68 опасность
перегрева
1001.0 1001.0 +29.4 +42.7
00 16.08 Ю 3-5
{12}
н/о н/о +33.5 +30.5 84 +62 +62 опасность
перегрева
1000.8 1001.0
03 16.08 ЮЗ 3-3
{6}
н/о н/о +31.1 +27.8 83 +51 +51 опасность
перегрева
1001.9 1002.0
06 16.08 В 1-2
{6}
н/о н/о +38.9 +24.0 43 +50 +50 опасность
перегрева
1003.0 1003.0
09 16.08 Ю 5-7
{8}
н/о н/о +37.4 +29.7 65 +63 +63 опасность
перегрева
1003.0 1003.0
12 16.08 Ю 4-9
{10}
н/о н/о +36.4 +30.8 73 +66 +66 опасность
перегрева
1001.2 1001.0
15 16.08 Ю 3-5
{9}
н/о н/о +36.0 +30.9 75 +66 +66 опасность
перегрева
1000.8 1001.0
18 16.08 ЮВ 3-4
{9}
н/о н/о +35.3 +32.2 84 +71 +71 опасность
перегрева
1001.8 1002.0
21 16.08 Ю 3-7
{12}
н/о н/о +34.1 +29.8 78 +60 +60 опасность
перегрева
1001.2 1001.0 +30.6 +40.2
00 17.08 Ю 5-6
{12}
н/о н/о +33.8 +30.9 85 +64 +64 опасность
перегрева
1000.7 1001.0
03 17.08 ЮЗ 3-4
{9}
н/о н/о +32.9 +28.8 79 +56 +56 опасность
перегрева
1001.3 1001.0
06 17.08 ЮВ 6-8
{9}
н/о н/о +35.8 +31.0 76 +66 +66 опасность
перегрева
1003.5 1004.0
09 17.08 ЮВ 6-7
{8}
н/о н/о +37.0 +30.2 68 +64 +64 опасность
перегрева
1002.7 1003.0
12 17.08 ЮВ 6-7
{8}
н/о н/о +37.1 +30.5 69 +65 +65 опасность
перегрева
1000.7 1001.0
15 17.08 Ю 2-5
{8}
н/о н/о +35.8 +30.1 73 +63 +63 опасность
перегрева
1000.0 1000.0
18 17.08 ЮЗ 3-6
{9}
н/о н/о +34.9 +29.9 75 +61 +61 опасность
перегрева
1001.4 1001.0
21 17.08 Ю 5-7
{7}
н/о н/о +34.7 +28.3 69 +56 +56 опасность
перегрева
1000.9 1001.0 +32.6 +37.7
00 18.08 ЮЗ 4-4
{7}
н/о н/о +31.7 +26.1 72 +47 +47 опасность
перегрева
1000.5 1001.0
03 18.08 З 3-4
{4}
н/о н/о +31.7 +25.3 69 +46 +46 опасность
перегрева
1001.7 1002.0
06 18.08 З 3-5
{5}
н/о н/о +41.2 +19.1 28 +45 +45 опасность
перегрева
1002.6 1003.0

 

Местоположение метеостанции Bubiyan (Кувейт): широта 29.77 долгота 48.38 высота над уровнем моря 6 м.

В архиве по умолчанию представлена погода в Bubiyan за последнюю неделю. Архивные данные за месяц целиком и за предыдущие месяцы, начиная с января 2011 года, Вы можете получить, выбрав интересующий диапазон дат из раскрывающегося списка и нажав кнопку "Ввод!".

Внимание! Время в таблицах - всемирное. Для получения местного времени необходимо прибавить поправку, которая в Bubiyan равна 3 ч.

Смотрите также архив погоды в соседних городах и на ближайших метеорологических станциях:

Погода в Fao (Ирак) (26 км)
Погода в Failaka Island (Кувейт) (35 км)
Погода в Warba (Кувейт) (37 км)
Погода в Sabriyah (Кувейт) (51 км)
Погода в Al-Shuaiba (Кувейт) (54 км)
Погода в Shuwaikh (Кувейт) (58 км)
Погода в Abadan (Иран) (68 км)
Погода в Experimental Farm (Кувейт) (68 км)
Погода в Kuwait (Кувейт) (73 км)
Погода в Abdaly (Кувейт) (74 км)

Пояснения к столбцам:

Ветер - указаны скорость ветра в м/с - средняя за 10 мин, порывы в срок и между сроками (в фигурных скобках) и направление, откуда дует ветер: С - северный, СВ - северо-восточный, В - восточный, ЮВ - юго-восточный, Ю - южный, ЮЗ - юго-западный, З - западный, СЗ - северо-западный.
Видимость - горизонтальная дальность видимости в метрах или километрах. При видимости от 1 до 10 км при отсутствии осадков обычно наблюдается дымка, при ухудшении видимости до 1 км и менее - туман. В сухую погоду видимость может ухудшаться дымом, пылью или мглою.
Явления - указаны атмосферные явления, наблюдавшиеся в срок или в последний час перед сроком; фигурными скобками обозначены явления, наблюдавшиеся между сроками (за 1-3 часа до срока); квадратными скобками обозначены град или гололедные отложения с указанием их диаметра в мм.
Облачность - указаны через наклонную черту общая и нижняя облачность в баллах и высота нижней границы облаков в метрах; квадратными скобками обозначены формы облаков: Ci - перистые, Cs - перисто-слоистые, Cc - перисто-кучевые, Ac - высококучевые, As - высокослоистые, Sc - слоисто-кучевые, Ns - слоисто-дождевые, Cu - кучевые, Cb - кучево-дождевые. Подробнее классификацию облаков см. в Атласе облаков (PDF).
T - Температура воздуха - температура, измеренная на высоте 2 м над землей.
Td - Температура точки росы - температура, при понижении до которой содержащийся в воздухе водяной пар достигнет насыщения.
f - Относительная влажность воздуха - влажноcть воздуха, измеренная на высоте 2 м над землей.
Te - Эффективная температура - температура, которую ощущает одетый по сезону человек в тени. Характеристика душности погоды. При расчете учитывается влияние влажности воздуха и скорости ветра на теплоощущения человека.
Tes - Эффективная температура на солнце - температура, которую ощущает человек, с поправкой на солнечный нагрев. Характеристика знойности погоды. Зависит от высоты солнца над горизонтом, облачности и скорости ветра. Ночью, в пасмурную погоду, а также при ветре 12 м/с и более поправка равна нулю.
P - Атмосферное давление - приведенное к уровню моря атмосферное давление.
Po - Атмосферное давление - измеренное на уровне метеостанции атмосферное давление.
Tmin - Минимальная температура - минимум температуры воздуха на высоте 2 м над землей.
Tmax - Максимальная температура - максимум температуры воздуха на высоте 2 м над землей.
R - Количество осадков - Количество выпавших осадков за период времени, мм. При наведении курсора мыши на число - период времени, за который выпало указанное количество осадков.
R24 - Количество осадков - Количество выпавших осадков за 24 часа, мм.
S - Снежный покров - Высота снежного покрова, см. При наведении курсора мыши на число - состояние снежного покрова и степень покрытия местности в баллах.